[[{"header":{"parameterUnit":"m.s-1","parameterCategory":1,"la1":30.2991,"la2":30.254,"lo1":-89.0895,"lo2":-89.0444,"dy":0.0017,"dx":0.0017,"nx":28,"ny":28,"refTime":"2025-06-05T09:00:00:Z","depth":0,"parameterNumber":2,"parameterNumberName":"U-component_of_WINDS"},"data":[0,0,0,0,0,0,0,0,0,0,0,0,0,0,0,0,0,0,0,0,0,0,0,0,0,0,0,0,0,0,0,0,0,0,0,0,0,0,0,0,0,0,0,0,0,0,0,0,0,0,0,0,0,0,0,0,0,0,3.3169,3.317,0,3.3279,3.3281,3.3282,3.3256,3.3254,3.3251,3.3249,3.3363,3.3368,3.3373,0,0,0,0,0,0,0,0,0,0,0,0,0,3.2935,3.294,3.3169,3.317,3.3172,3.3279,3.3281,3.3282,3.3256,3.3253,3.3251,3.3248,3.3362,3.3368,3.3374,0,0,0,0,0,0,0,0,0,0,0,0,0,3.304,3.2941,3.3169,3.3172,3.3173,3.3279,3.3281,3.3283,3.3257,3.3253,3.325,3.3247,3.336,3.3367,3.3375,3.3485,0,0,3.3397,3.3401,0,0,0,0,0,0,0,0,3.3034,3.3049,3.317,3.3172,3.3173,3.325,3.324,3.335,3.3257,3.3225,3.3249,3.3246,3.3328,3.3338,3.3366,3.349,3.3495,3.3398,3.3403,3.3406,3.3408,0,0,0,0,0,0,0,3.3027,3.3044,3.3213,3.3172,3.3174,3.3167,3.3179,3.3261,3.3293,3.3227,3.3226,3.3239,3.3329,3.3359,3.3369,3.3496,3.3398,3.3405,3.3409,3.3412,3.3713,3.3716,0,0,0,0,0,0,3.3018,3.3038,3.3209,3.3216,3.3095,3.3174,3.3187,3.3229,3.3292,3.3299,3.3242,3.3238,3.3348,3.336,3.3372,3.3503,3.3406,3.3413,3.3417,3.3709,3.3713,3.3717,0,0,0,0,0,0,3.3013,3.3034,3.3205,3.3127,3.3148,3.3181,3.3229,3.3233,3.3263,3.3303,3.3309,3.3267,3.3346,3.3362,3.3456,3.3506,3.3416,3.3423,3.3705,3.3711,3.3715,3.3766,0,0,0,0,0,0,3.3007,3.3032,3.3075,3.3128,3.3152,3.3287,3.3232,3.3237,3.3276,3.3271,3.3328,3.3334,3.3344,3.3445,3.3463,3.3515,3.3429,3.3701,3.3708,3.3714,3.376,3.3772,3.3783,0,0,0,0,0,3.2999,3.3085,3.3077,3.3098,3.3206,3.329,3.3304,3.3313,3.328,3.3322,3.3348,3.3332,3.3498,3.3455,3.3476,3.353,3.3698,3.3706,3.3713,3.3755,3.377,3.3782,0,0,0,0,0,0,3.3038,3.3093,3.3084,3.319,3.3236,3.3285,3.3339,3.333,3.3385,3.3379,3.3389,3.3402,3.3497,3.3524,3.3474,3.3638,3.3593,3.3605,3.3617,3.3632,3.3643,3.3634,3.3435,0,0,0,0,0,3.3059,3.3123,3.3167,3.3257,3.328,3.3306,3.3343,3.3346,3.3393,3.3412,3.3445,3.3492,3.3554,3.3595,3.3655,3.3764,3.3774,3.3812,3.3823,3.3832,3.3842,3.3899,3.3915,3.3743,3.3743,3.3743,0,0,3.3104,3.3141,3.3181,3.3266,3.3301,3.3366,3.3322,3.3393,3.3441,3.3424,3.3513,3.3539,3.3591,3.3693,3.3739,3.3717,3.3892,3.3842,3.3849,3.3854,3.3908,3.3924,3.3939,3.3748,3.3747,3.3746,0,0,3.3217,3.3253,3.333,3.3366,3.342,3.3436,3.3454,3.3505,3.3521,3.3611,3.3599,3.3656,3.3764,3.3801,3.3834,3.3959,3.3946,3.3978,3.4037,3.4092,3.4106,3.4118,3.416,3.4175,3.3989,3.3989,3.3989,0,3.3266,3.3363,3.3371,3.3443,3.3479,3.3466,3.3543,3.3578,3.3648,3.3674,3.3649,3.3782,3.3817,3.3924,3.3955,3.3983,3.4003,3.3971,3.4103,3.4115,3.4127,3.4167,3.4183,3.3992,3.3992,3.3991,3.3991,0,3.3418,3.3485,3.3541,3.3608,3.3651,3.3726,3.3745,3.3788,3.3787,3.3806,3.3896,3.3937,3.4004,3.403,3.4031,3.4138,3.4122,3.4101,3.4055,3.4146,3.4184,3.4199,3.3997,3.3996,3.3995,3.3994,0,0,3.3559,3.3629,3.3649,3.3677,3.3735,3.3787,3.386,3.3924,3.3959,3.4009,3.4068,3.4159,3.4138,3.4176,3.4181,3.4229,3.4322,3.4201,3.4202,3.4219,3.4439,3.4453,3.4471,3.4314,3.4317,3.432,3.4433,0,3.3675,3.3803,3.3812,3.3927,3.3988,3.3975,3.4038,3.408,3.4099,3.4153,3.4175,3.4237,3.4207,3.4228,3.4276,3.4301,3.4366,3.4293,3.4369,3.4371,3.4353,3.4491,3.4507,3.4612,3.4448,3.4451,3.4453,0,3.3828,3.3879,3.4,3.4046,3.4072,3.4129,3.4186,3.4239,3.4285,3.4296,3.4337,3.4334,3.4408,3.4361,3.4461,3.4411,3.4443,3.446,3.4464,3.4469,3.4416,3.4497,3.4646,3.466,3.4477,3.4475,3.4473,0,3.3915,3.4015,3.4099,3.4125,3.4182,3.4221,3.4247,3.429,3.4327,3.4378,3.4402,3.4461,3.4493,3.4539,3.4552,3.4517,3.4651,3.4606,3.466,3.466,3.4687,3.4685,3.484,3.4713,3.4712,3.4712,3.4712,0,3.4042,3.4115,3.4138,3.419,3.4271,3.4281,3.4361,3.4385,3.4423,3.4478,3.4472,3.4523,3.4539,3.4593,3.4605,3.4684,3.47,3.4709,3.471,3.4708,3.4706,3.4727,3.4719,3.4716,3.4715,3.4714,3.4714,0,3.4152,3.4171,3.4261,3.4307,3.432,3.4378,3.4417,3.4466,3.4483,3.4553,3.457,3.4598,3.4661,3.4679,3.4757,3.4764,3.4856,3.4853,3.484,3.4839,3.4891,3.4885,3.5063,3.5086,3.4946,3.4947,3.4948,0,3.4231,3.4286,3.4338,3.4373,3.44,3.4459,3.4496,3.4507,3.4546,3.4602,3.4644,3.4706,3.4756,3.4858,3.4885,3.4943,3.4939,3.4998,3.4948,3.4943,3.4936,3.4932,3.4936,3.5006,3.5008,3.5009,3.501,0,3.4367,3.4373,3.4426,3.4483,3.4527,3.4572,3.4616,3.4646,3.4663,3.4707,3.4771,3.481,3.4887,3.4948,3.5007,3.5033,3.5024,3.5026,3.5041,3.5037,3.5026,3.503,3.4863,3.5021,3.502,3.5019,3.5019,3.5018,3.4462,3.4509,3.4552,3.4611,3.4645,3.4685,3.4732,3.4755,3.4809,3.4871,3.4875,3.4944,3.4987,3.5064,3.5093,3.5147,3.5129,3.5152,3.5157,3.5162,3.5165,3.502,3.5158,3.5158,3.5157,3.5157,3.5157,0,3.4595,3.4621,3.4676,3.4735,3.4781,3.4769,3.4816,3.4855,3.4915,3.4956,3.5005,3.5077,3.5136,3.5168,3.5226,3.5262,3.526,3.5277,3.5273,3.5279,3.5178,3.5158,3.5278,3.5278,3.5278,3.5278,3.5278,3.5278,3.4669,3.4748,3.4759,3.4854,3.488,3.4947,3.4974,3.501,3.5042,3.5123,3.5172,3.5191,3.5228,3.5288,3.5341,3.5349,3.5369,3.5388,3.5393,3.5299,3.5286,3.5274,3.5255,3.5393,3.5394,3.5489,3.549,3.549]},{"header":{"parameterUnit":"m.s-1","parameterCategory":1,"la1":30.2991,"la2":30.254,"lo1":-89.0895,"lo2":-89.0444,"dy":0.0017,"dx":0.0017,"nx":28,"ny":28,"refTime":"2025-06-05T09:00:00:Z","depth":0,"parameterNumber":3,"parameterNumberName":"V-component_of_WINDS"},"data":[0,0,0,0,0,0,0,0,0,0,0,0,0,0,0,0,0,0,0,0,0,0,0,0,0,0,0,0,0,0,0,0,0,0,0,0,0,0,0,0,0,0,0,0,0,0,0,0,0,0,0,0,0,0,0,0,0,0,1.5589,1.5589,0,1.5583,1.5583,1.5583,1.5555,1.5555,1.5554,1.5553,1.5547,1.5548,1.5548,0,0,0,0,0,0,0,0,0,0,0,0,0,1.5577,1.5577,1.5589,1.5589,1.5589,1.5583,1.5583,1.5583,1.5555,1.5555,1.5554,1.5553,1.5547,1.5548,1.5548,0,0,0,0,0,0,0,0,0,0,0,0,0,1.5578,1.5578,1.559,1.5575,1.5573,1.5583,1.5583,1.5583,1.5556,1.5555,1.5554,1.5553,1.5547,1.5548,1.5548,1.5572,0,0,1.555,1.5551,0,0,0,0,0,0,0,0,1.5578,1.5578,1.5577,1.5576,1.5574,1.5569,1.5576,1.5579,1.5556,1.5562,1.5553,1.5552,1.5555,1.5555,1.5556,1.5572,1.5571,1.555,1.5551,1.5551,1.5551,0,0,0,0,0,0,0,1.5578,1.5578,1.5587,1.5577,1.5575,1.5568,1.5567,1.5577,1.5564,1.5562,1.556,1.5559,1.5554,1.5556,1.5556,1.5571,1.555,1.5551,1.5551,1.5552,1.5605,1.5606,0,0,0,0,0,0,1.558,1.5579,1.5587,1.5587,1.5574,1.5569,1.5568,1.5572,1.5564,1.5562,1.556,1.5558,1.5555,1.5555,1.5556,1.5582,1.5551,1.5552,1.5552,1.5604,1.5605,1.5606,0,0,0,0,0,0,1.558,1.5581,1.5587,1.5582,1.5582,1.5571,1.5575,1.5572,1.5573,1.5563,1.5561,1.5564,1.5554,1.5555,1.5568,1.5581,1.5552,1.5553,1.5602,1.5604,1.5605,1.5636,0,0,0,0,0,0,1.5579,1.5581,1.559,1.5583,1.5583,1.56,1.5576,1.5573,1.5575,1.5572,1.5566,1.5564,1.5553,1.5567,1.5568,1.5582,1.5553,1.5601,1.5603,1.5605,1.5633,1.5638,1.5642,0,0,0,0,0,1.5579,1.5599,1.5591,1.5592,1.5594,1.5601,1.5601,1.5589,1.5576,1.5585,1.5578,1.5564,1.558,1.5569,1.557,1.5584,1.56,1.5603,1.5605,1.5631,1.5637,1.5642,0,0,0,0,0,0,1.5609,1.5598,1.5588,1.5606,1.5605,1.5596,1.5607,1.5595,1.5597,1.5594,1.5579,1.5578,1.5593,1.559,1.5577,1.5606,1.5588,1.559,1.5607,1.5613,1.5617,1.5617,1.5554,0,0,0,0,0,1.5617,1.5624,1.5614,1.5631,1.5631,1.5619,1.5622,1.5612,1.561,1.5609,1.5603,1.5601,1.5606,1.5609,1.5613,1.5633,1.5631,1.5643,1.5647,1.5651,1.5653,1.5663,1.5668,1.5613,1.5613,1.5613,0,0,1.5635,1.563,1.5635,1.5637,1.5634,1.5641,1.5619,1.5627,1.5632,1.561,1.5622,1.5618,1.5615,1.5631,1.5638,1.5629,1.5668,1.5654,1.5657,1.5657,1.5665,1.5671,1.5675,1.5615,1.5615,1.5614,0,0,1.5671,1.5668,1.5682,1.568,1.5676,1.5668,1.5671,1.5664,1.566,1.5672,1.5656,1.5661,1.5669,1.5667,1.5668,1.5702,1.5689,1.5704,1.5726,1.5736,1.574,1.5744,1.5755,1.576,1.5706,1.5707,1.5707,0,1.5694,1.5704,1.569,1.5699,1.57,1.5681,1.5694,1.5692,1.569,1.5691,1.5681,1.569,1.5687,1.5702,1.571,1.5711,1.5714,1.5704,1.5741,1.5744,1.5747,1.5758,1.5763,1.5708,1.5708,1.5708,1.5708,0,1.5731,1.5739,1.575,1.5748,1.575,1.5761,1.5749,1.5753,1.5743,1.5736,1.5748,1.5743,1.5745,1.5748,1.5738,1.5762,1.5756,1.5743,1.5725,1.5754,1.5764,1.5769,1.5711,1.571,1.571,1.5709,0,0,1.5786,1.5776,1.578,1.5779,1.5773,1.5778,1.5788,1.579,1.5793,1.5792,1.58,1.5807,1.5795,1.5795,1.5785,1.5794,1.5821,1.578,1.578,1.5787,1.5845,1.5854,1.5859,1.5812,1.5813,1.5814,1.5845,0,1.582,1.5836,1.5824,1.5843,1.5848,1.583,1.5838,1.5836,1.5829,1.5833,1.5826,1.5831,1.5816,1.5815,1.5823,1.5816,1.5832,1.5813,1.5819,1.5819,1.582,1.5864,1.5874,1.5904,1.5849,1.585,1.585,0,1.5862,1.5862,1.5881,1.5873,1.5875,1.5883,1.5883,1.5888,1.5884,1.5879,1.5879,1.5867,1.5876,1.5858,1.587,1.5857,1.5859,1.5856,1.5856,1.5856,1.5836,1.5865,1.5913,1.5918,1.5856,1.5856,1.5855,0,1.5898,1.5904,1.5916,1.5915,1.5907,1.5913,1.5909,1.5905,1.5906,1.5906,1.5907,1.5908,1.5909,1.591,1.5898,1.5887,1.5912,1.5893,1.5907,1.5907,1.5913,1.5913,1.5962,1.5915,1.5915,1.5915,1.5915,0,1.5937,1.5949,1.5932,1.5939,1.5952,1.5938,1.5951,1.5946,1.5942,1.5948,1.5932,1.5937,1.5922,1.5926,1.5917,1.5928,1.5928,1.5924,1.5921,1.5925,1.5926,1.5925,1.5923,1.5916,1.5916,1.5915,1.5915,0,1.598,1.5969,1.5981,1.5972,1.597,1.598,1.5972,1.5978,1.597,1.5978,1.5979,1.5967,1.5971,1.5959,1.5962,1.5955,1.5971,1.5965,1.5972,1.597,1.5985,1.5983,1.6035,1.6041,1.5991,1.5992,1.5992,0,1.6005,1.6014,1.6006,1.6008,1.6006,1.601,1.6012,1.5998,1.6,1.5996,1.6002,1.6005,1.6006,1.6013,1.6004,1.6006,1.6,1.6018,1.6,1.6003,1.5999,1.5998,1.5999,1.6021,1.6022,1.6022,1.6023,0,1.6051,1.6045,1.6047,1.6047,1.6049,1.6049,1.6047,1.605,1.6035,1.6038,1.6042,1.6043,1.6045,1.6047,1.6046,1.6043,1.603,1.6029,1.6032,1.6035,1.6039,1.6036,1.5981,1.6027,1.6027,1.6027,1.6026,1.6026,1.6085,1.6092,1.6087,1.6089,1.6087,1.6086,1.6091,1.6084,1.6086,1.6087,1.6078,1.6083,1.6079,1.6077,1.6075,1.6078,1.607,1.6075,1.6076,1.6077,1.6079,1.6039,1.6078,1.6078,1.6078,1.6078,1.6078,0,1.6129,1.6124,1.6127,1.6125,1.6128,1.6115,1.6113,1.6116,1.612,1.6117,1.6118,1.6122,1.6124,1.6116,1.6117,1.6121,1.6116,1.6122,1.6121,1.612,1.6087,1.6084,1.6127,1.6127,1.6127,1.6127,1.6127,1.6127,1.6152,1.6162,1.6155,1.6164,1.616,1.6164,1.6164,1.6162,1.616,1.6165,1.6166,1.6161,1.6155,1.6156,1.6157,1.6154,1.6155,1.6163,1.6159,1.6128,1.6123,1.6118,1.6115,1.6164,1.6164,1.6192,1.6192,1.6192]}]]